Theta_e
303 303 303 304 304 304 304 304 304 304 305 306 306 306 306 306 306 306 303 305 300 296 296 300 301 293 294 291 286 291 292 291 290 285 286 287 288 290 290 294 289 285 285 285 286 283 280 300 300 292 295 297 296 296
302 302 303 304 304 304 304 304 304 304 304 305 305 306 306 307 307 306 300 305 305 297 296 299 300 301 299 299 294 293 291 294 295 289 289 289 284 289 290 282 297 288 289 286 287 284 295 300 299 301 300 297 294 294
300 300 302 303 304 305 304 304 304 304 304 305 305 306 306 306 307 305 302 303 300 296 295 294 295 302 304 302 301 291 291 296 296 297 291 289 283 285 285 285 290 297 300 290 291 296 299 300 303 303 303 298 296 295
300 301 302 302 303 304 304 304 304 304 304 304 304 305 306 306 307 306 302 303 301 297 289 292 302 300 305 304 302 302 299 300 298 296 291 288 286 288 287 292 292 293 297 295 292 296 300 301 302 303 302 297 296 296
299 300 301 301 302 303 303 304 304 304 304 304 305 305 306 306 306 305 305 304 304 297 290 290 296 300 301 301 300 299 298 295 293 290 289 287 288 287 289 288 287 294 292 288 286 296 296 298 300 303 296 295 296 294
300 300 300 301 302 302 302 304 304 304 304 305 305 305 306 306 306 302 296 302 304 302 293 284 295 298 298 302 300 299 298 296 295 291 290 292 292 291 283 284 295 297 297 296 295 299 297 298 300 300 297 296 295 293
299 300 300 301 301 302 302 302 303 305 304 304 305 305 305 306 302 297 294 300 305 302 292 287 289 298 300 298 299 297 298 295 294 292 290 290 290 292 287 282 292 297 298 299 298 299 296 296 295 298 297 297 296 294
299 300 300 301 301 302 302 303 304 305 304 304 304 305 305 305 303 298 302 305 305 298 296 287 286 293 297 292 293 297 293 294 293 292 292 288 288 290 288 290 294 298 300 299 298 298 296 295 296 295 296 295 293 292
299 300 300 300 301 301 302 303 304 304 304 304 304 305 301 299 296 298 306 303 301 296 289 289 283 285 299 295 294 293 294 287 293 289 289 290 288 287 290 292 296 298 298 298 298 295 295 294 294 294 294 292 291 291
299 300 300 300 301 301 301 303 304 304 304 304 301 296 292 296 306 303 296 291 291 293 292 287 287 284 292 294 291 291 291 288 285 288 290 288 286 291 294 296 298 299 299 296 292 292 292 292 293 293 292 292 292 292
299 300 300 300 301 301 301 302 304 304 303 299 294 292 297 302 296 293 288 287 288 285 287 288 285 283 294 289 289 292 287 288 285 287 286 287 286 290 295 299 299 300 298 296 296 294 292 294 294 292 292 292 292 292
300 300 300 300 300 301 302 303 304 301 299 298 297 299 298 293 290 286 285 288 286 284 287 285 286 287 291 293 289 291 288 288 282 292 288 284 289 295 298 300 298 297 296 294 293 292 294 295 293 292 291 290 290 291
300 300 300 300 300 301 302 303 304 303 301 298 293 290 288 287 282 282 280 282 283 288 291 292 290 293 292 293 288 289 285 283 292 287 285 287 297 298 297 296 296 296 293 293 292 295 295 294 293 291 290 290 291 290
299 299 300 300 301 301 302 303 304 302 297 290 287 281 283 283 283 284 286 289 293 294 293 293 290 289 289 285 288 284 287 288 285 283 285 293 296 297 296 297 295 292 292 291 293 293 292 291 291 291 290 290 291 289
299 299 300 300 300 301 302 303 303 300 294 288 288 282 284 288 293 296 294 290 295 296 293 290 290 290 287 286 287 285 283 283 284 284 291 295 296 296 295 295 293 291 290 290 290 290 290 290 290 289 289 288 290 290
299 299 300 301 302 302 303 302 301 298 293 290 289 286 290 291 287 292 294 291 293 292 294 292 288 286 285 285 285 283 283 284 286 292 295 297 295 294 295 294 292 292 290 289 289 291 291 291 289 289 290 291 290 291
299 295 300 302 303 303 303 298 295 292 290 288 287 288 288 290 291 294 293 295 296 293 288 289 286 284 289 285 286 288 287 290 294 295 296 295 293 293 293 293 293 292 290 289 289 289 289 290 291 290 288 288 289 289
294 298 300 301 301 300 298 296 293 290 287 288 286 288 291 292 293 296 291 294 293 292 291 289 291 288 286 285 286 290 295 296 297 295 294 294 294 293 293 292 293 292 291 291 291 290 289 287 287 286 288 287 286 287
297 298 300 301 300 296 292 293 293 287 288 288 290 291 294 294 295 297 295 294 294 296 293 291 288 287 289 293 293 295 296 294 292 293 295 294 293 293 293 293 293 291 290 290 290 288 288 288 287 286 286 286 284 284
299 300 300 301 301 294 290 290 295 290 286 291 292 293 293 294 296 296 294 294 294 293 289 288 290 292 291 297 299 299 297 294 294 291 291 293 295 293 292 292 291 291 291 291 289 289 288 286 286 286 286 285 285 284
299 300 301 300 296 295 292 292 290 291 290 288 292 293 293 295 294 295 294 296 292 290 289 291 295 297 299 301 302 302 297 294 292 292 290 290 291 292 293 292 292 291 289 288 286 286 286 284 285 286 287 285 285 285
298 301 297 298 293 294 291 292 289 294 290 291 290 291 289 289 290 291 293 292 290 291 293 295 297 298 299 300 299 299 298 295 294 293 293 293 291 290 290 292 291 289 290 289 287 286 285 284 286 286 285 285 286 286
300 298 295 295 290 289 287 294 291 291 288 288 292 291 289 290 293 297 291 292 293 298 298 299 300 301 299 300 298 296 297 295 294 293 293 292 292 292 292 291 291 291 289 288 288 287 286 287 287 286 286 285 285 284
300 294 289 289 289 286 292 290 290 288 290 287 289 289 292 293 296 292 289 290 293 296 298 299 300 299 297 294 293 293 293 294 293 293 293 293 291 291 292 291 292 292 291 290 290 289 288 287 287 285 285 285 284 283
288 287 289 285 291 289 288 288 288 287 287 288 288 290 291 291 288 287 287 288 290 293 295 298 299 297 296 293 293 292 293 294 292 291 292 294 292 292 290 291 291 292 292 291 289 289 288 287 286 285 285 283 282 282
284 287 285 288 287 286 287 286 287 287 289 288 289 291 291 287 286 285 287 288 289 292 292 292 294 296 295 296 292 294 294 295 294 291 290 292 293 292 290 289 288 288 291 290 289 288 286 286 285 284 282 282 282 281
282 284 289 293 290 290 288 290 293 290 289 289 289 289 288 285 284 286 288 290 289 292 293 294 294 298 297 296 296 294 294 294 292 290 290 290 291 293 292 289 286 286 289 288 288 286 284 283 283 282 280 279 279 279
287 291 287 287 288 290 288 290 289 287 287 290 291 287 285 284 283 285 289 291 291 293 294 296 301 301 300 299 296 293 292 292 292 291 290 289 289 289 289 289 289 286 287 287 285 284 283 282 281 280 279 278 278 278
287 290 293 289 291 290 289 288 287 288 289 289 287 286 284 285 287 287 289 290 292 293 294 297 297 297 296 296 295 294 293 292 289 287 286 284 284 285 287 288 287 286 284 282 282 283 282 281 280 279 278 277 277 277
289 293 289 290 288 287 287 290 289 290 290 290 288 286 286 286 288 291 290 292 292 292 294 294 293 294 292 291 290 291 292 293 291 290 287 286 286 288 288 286 285 284 283 282 281 280 280 279 278 278 277 276 276 275
292 292 290 289 287 288 289 290 290 291 291 290 290 286 282 286 289 290 290 290 293 294 293 292 292 292 291 290 290 289 288 289 291 291 290 289 287 285 284 283 282 282 281 280 279 277 276 276 275 275 274 274 274 274
292 291 289 284 284 287 290 288 288 287 287 288 286 287 285 286 284 287 289 290 292 292 289 292 292 287 287 286 285 284 285 285 284 287 289 287 285 285 284 283 282 281 279 278 277 276 275 274 274 273 273 273 272 272
288 290 288 286 284 285 287 288 287 286 286 285 285 286 286 285 280 285 291 292 292 293 293 291 289 287 285 283 281 281 280 280 279 279 280 280 280 282 283 283 282 280 279 277 276 275 274 272 270 269 267 266 265 266
Wind_Speed
17 17 19 17 16 16 16 15 14 14 16 15 14 12 12 11 11 6 4 3 2 2 5 3 3 2 4 2 3 3 2 5 2 2 2 2 2 3 2 3 4 6 6 3 3 4 7 3 6 2 3 3 6 4
18 16 17 18 16 15 15 15 15 14 14 14 14 13 13 12 11 6 3 1 1 2 4 1 7 12 9 9 4 0 5 2 1 3 1 1 2 3 2 2 2 5 6 5 7 7 4 1 4 3 5 4 1 6
20 19 16 16 17 15 14 14 14 15 14 15 14 14 12 12 11 4 3 1 1 1 4 3 5 5 6 8 4 5 1 2 3 1 3 1 2 1 2 4 1 1 2 3 2 2 4 2 2 4 4 1 5 6
21 19 18 18 17 16 15 14 14 14 15 14 14 13 13 13 13 7 2 1 1 2 1 5 5 3 7 7 6 4 7 4 4 3 2 2 2 3 3 3 1 4 5 5 3 2 5 6 2 4 4 5 9 10
19 19 18 18 17 16 17 16 14 14 14 14 14 13 12 11 10 5 3 3 2 2 2 4 8 6 5 7 10 9 9 5 2 2 2 3 3 1 3 2 4 5 6 4 6 5 4 7 9 7 7 7 7 11
18 18 19 19 17 17 17 16 17 13 14 14 13 13 11 9 7 3 2 1 4 2 0 3 4 3 4 9 9 8 5 4 3 3 2 3 4 2 3 3 3 2 3 6 4 4 4 5 6 9 11 9 11 8
19 19 18 17 18 17 16 17 18 17 12 13 12 11 8 11 1 2 1 2 5 2 1 3 3 2 7 5 3 3 4 2 2 2 2 3 2 3 2 3 4 3 5 3 4 6 2 4 7 11 14 12 12 7
19 17 18 18 16 17 15 16 19 15 10 11 11 9 11 3 1 2 2 1 3 1 1 2 4 3 4 3 3 1 2 1 1 1 2 3 3 3 5 7 6 2 6 4 2 3 4 9 11 10 10 10 9 7
17 18 17 16 16 16 15 16 19 8 9 10 9 11 2 1 2 1 11 9 3 2 1 2 2 2 3 2 3 2 2 2 1 2 3 3 3 5 7 7 6 4 5 5 5 6 9 11 11 9 11 9 9 6
17 17 17 15 15 15 16 17 16 8 8 9 3 1 1 1 10 5 4 2 2 1 1 2 2 3 4 2 2 3 2 2 3 5 2 4 5 7 6 7 6 5 5 7 6 5 6 9 11 9 9 7 7 5
17 17 15 16 16 16 16 16 12 8 5 1 1 1 2 5 3 2 1 1 2 2 3 3 4 2 3 3 2 1 2 1 2 3 4 2 4 5 7 7 6 7 6 6 7 6 6 11 12 10 7 7 6 5
16 14 13 14 15 16 13 16 9 1 2 2 1 1 2 2 1 1 2 3 4 3 4 4 5 5 1 3 3 2 1 2 4 4 3 3 5 1 11 9 6 7 8 8 8 9 12 12 10 9 7 7 5 4
15 14 15 15 14 14 14 11 2 4 3 2 2 1 1 2 3 4 5 3 3 3 4 2 2 3 2 3 3 2 3 4 1 3 3 4 1 4 10 10 9 9 9 8 8 12 13 11 8 8 7 6 6 4
13 15 16 15 15 14 13 7 1 5 1 0 1 2 3 4 5 5 3 3 1 3 4 5 3 2 1 2 2 2 3 3 3 4 4 3 5 2 7 8 10 7 8 9 11 10 11 11 8 7 6 6 6 4
15 17 18 15 10 9 6 4 8 0 1 1 2 3 6 5 4 2 1 4 2 3 4 3 2 1 1 2 2 2 3 5 5 3 2 6 7 6 10 10 11 8 7 7 7 7 8 8 7 5 5 5 6 4
15 14 3 15 12 6 6 3 3 1 1 2 4 4 4 2 4 3 3 3 2 2 2 2 2 3 3 2 5 6 4 4 2 2 6 2 4 8 7 9 8 8 7 7 7 6 6 7 7 6 4 3 5 5
12 3 10 15 6 9 8 2 2 3 3 3 4 4 6 6 5 2 2 2 3 3 2 1 3 4 3 3 4 4 3 2 6 7 5 4 10 10 10 9 9 8 7 7 6 7 6 6 7 6 6 3 5 5
3 4 12 14 5 2 1 2 1 2 4 4 4 4 2 2 1 1 1 3 3 2 2 1 2 3 2 3 2 2 2 5 2 3 5 7 8 7 8 8 7 7 7 6 6 5 6 7 7 4 6 2 5 6
6 7 11 10 1 2 1 2 1 3 5 3 4 4 3 1 1 3 4 3 2 2 1 1 3 3 1 2 2 3 6 3 4 4 4 6 8 8 7 7 7 6 6 5 5 5 4 5 4 4 4 4 3 2
14 13 10 4 2 1 2 1 2 3 4 3 3 3 3 2 4 4 4 2 2 1 1 2 2 5 3 1 2 4 2 4 7 5 4 5 6 8 7 6 5 6 5 6 4 6 5 4 3 3 4 4 4 3
4 1 4 2 1 1 2 1 3 4 4 3 4 3 2 2 3 3 2 2 1 1 2 3 2 4 7 3 3 2 3 5 4 5 5 5 3 5 4 3 5 4 5 4 5 4 5 4 3 3 6 4 4 4
1 3 1 1 1 3 3 3 3 3 2 4 4 2 3 1 4 3 3 1 2 2 3 2 2 3 5 3 8 6 5 6 6 5 5 6 3 3 3 4 4 4 6 5 5 5 4 4 5 5 5 4 5 5
2 1 1 2 2 1 6 1 3 2 3 3 4 3 2 1 2 5 2 2 1 1 3 2 0 6 5 3 7 6 8 9 6 5 4 3 4 5 6 5 5 9 6 2 3 5 5 6 6 5 5 5 5 5
3 2 2 2 4 3 3 3 3 2 2 3 3 2 2 1 3 1 2 2 2 4 2 4 3 4 2 5 4 3 4 4 5 4 6 9 8 5 7 5 5 5 6 5 5 5 5 5 6 5 5 6 5 5
2 3 3 4 3 4 3 3 3 2 3 4 3 2 2 1 2 2 1 1 3 4 5 5 2 2 3 1 2 3 3 6 7 5 3 10 8 7 6 5 5 4 5 7 6 7 5 5 5 6 6 6 7 7
3 5 6 4 3 3 3 2 1 3 1 1 2 2 1 1 2 1 1 2 2 3 4 5 5 2 3 2 3 5 4 4 8 6 4 2 8 10 8 9 7 5 5 6 8 9 8 6 7 10 9 8 7 8
3 4 4 4 3 2 3 2 2 3 2 1 2 2 2 2 2 1 1 1 2 2 4 5 4 3 1 3 5 7 8 8 10 6 5 5 6 5 8 10 10 3 5 9 8 8 8 7 8 9 7 7 7 7
5 3 4 2 3 2 2 2 2 3 2 3 1 2 1 2 1 1 1 2 4 6 6 5 3 2 3 2 7 8 8 10 11 9 10 11 9 9 10 8 7 11 8 8 8 7 7 7 8 8 8 7 6 5
4 2 4 3 1 3 3 2 1 1 2 2 2 2 2 1 1 2 2 4 5 6 3 3 2 5 7 8 8 6 4 6 10 15 15 8 5 3 3 5 6 7 7 8 10 9 11 9 9 8 8 7 5 5
3 2 1 0 3 2 2 1 1 1 0 1 2 2 2 1 1 2 2 3 4 5 5 4 4 7 7 8 8 10 7 3 4 9 10 7 4 5 7 8 8 7 7 9 9 8 9 8 7 7 8 7 6 6
3 3 3 3 2 1 2 2 1 1 1 1 3 3 2 2 1 1 2 2 3 3 4 5 7 6 6 6 6 10 8 8 11 13 11 9 9 9 9 9 7 7 8 9 8 7 7 8 7 8 9 9 9 7
2 2 4 3 1 1 3 2 2 2 1 1 1 2 1 2 1 1 1 2 1 2 2 3 6 7 7 7 7 7 7 4 5 6 10 8 8 9 9 8 8 8 9 9 8 7 10 9 7 7 7 8 7 7
1 2 3 3 3 3 3 3 2 2 2 2 3 3 2 2 3 2 2 2 2 2 3 5 7 8 10 10 9 8 9 8 8 10 13 12 11 10 8 8 8 9 10 9 8 8 9 9 7 7 7 6 5 6
Wind_Direction
323 325 326 324 318 320 320 315 316 318 318 319 320 324 327 330 335 338 280 243 205 237 281 274 344 68 7 95 146 248 61 358 65 102 167 255 272 331 318 165 181 155 161 174 166 228 246 308 94 62 274 84 137 109
322 323 319 325 319 314 313 314 309 304 301 310 315 318 323 327 336 331 269 313 250 186 257 258 245 236 200 218 150 34 148 99 109 97 86 36 325 313 326 282 115 204 174 180 185 213 219 18 124 105 54 115 70 93
321 323 322 316 323 311 313 317 315 310 303 304 304 298 301 314 320 296 275 302 9 285 295 337 254 274 193 196 165 126 11 126 81 111 138 123 252 356 274 239 115 198 233 201 89 45 95 112 4 108 68 3 120 93
322 319 322 321 326 329 317 310 314 312 307 302 300 301 298 308 318 323 254 233 228 75 259 281 345 357 330 157 169 129 124 72 101 69 102 143 234 193 264 294 239 233 169 202 233 127 92 70 63 219 170 138 89 82
319 320 319 317 320 319 327 326 306 307 306 301 302 301 298 305 317 295 227 184 232 213 238 280 309 252 169 109 103 95 110 108 95 93 132 211 221 272 263 320 250 190 186 169 227 184 171 190 206 220 130 105 103 104
311 319 320 317 314 315 320 320 323 299 303 305 303 307 309 317 319 263 260 194 183 175 212 305 297 320 94 105 107 106 94 80 95 137 202 256 238 126 260 255 270 138 144 163 183 199 177 156 146 115 109 116 104 98
323 312 315 315 315 317 313 315 315 312 296 307 307 306 311 305 220 260 310 291 182 118 180 311 307 73 103 90 70 57 54 76 112 151 220 257 269 15 246 234 261 265 219 193 142 117 120 156 122 113 115 111 107 102
312 323 318 318 321 322 314 313 312 306 295 302 304 310 319 265 46 268 283 133 115 142 290 267 274 122 143 115 107 114 96 105 179 187 222 241 302 211 249 237 271 310 92 78 113 135 157 100 106 104 113 114 96 82
317 318 313 321 325 322 325 321 319 313 305 305 300 302 300 216 229 115 99 73 57 60 240 256 216 213 114 87 105 87 138 170 148 218 236 167 229 219 226 211 215 179 147 172 271 75 90 113 116 113 108 100 97 89
321 314 316 316 317 324 322 319 321 302 298 303 295 257 259 291 132 109 30 39 21 359 273 258 311 255 107 134 128 138 173 205 220 216 171 222 252 241 224 209 181 145 66 110 96 79 74 102 112 106 106 114 107 100
305 307 312 319 316 318 315 315 314 308 290 270 325 6 294 332 55 29 100 236 165 239 200 225 208 211 340 137 137 239 173 204 252 197 196 212 266 250 178 161 153 166 155 117 111 116 104 121 118 112 98 94 93 89
309 305 311 313 316 318 311 314 309 210 321 125 102 3 351 18 54 283 202 206 202 241 179 171 214 190 6 108 103 153 232 181 251 142 227 246 254 174 141 133 119 117 101 89 108 90 102 105 114 110 98 94 95 84
316 318 313 313 314 314 316 312 265 136 137 34 43 43 336 145 231 224 206 214 212 208 164 118 41 53 48 41 96 177 222 237 212 214 235 232 81 131 118 117 105 94 91 93 81 101 105 107 98 101 102 99 106 68
311 312 312 307 303 300 301 280 189 163 16 88 189 230 225 192 235 210 217 146 93 43 85 107 98 102 99 89 127 219 229 289 260 218 226 151 90 109 112 114 111 101 98 94 102 101 106 101 102 95 91 94 118 79
319 315 310 300 294 292 272 239 179 126 115 262 236 248 231 244 270 359 133 104 85 112 103 98 90 119 131 166 200 222 241 237 232 223 124 135 186 121 118 110 105 102 99 94 115 114 115 116 113 112 110 103 114 117
319 316 351 351 341 271 252 199 153 104 251 251 231 268 279 11 336 249 118 104 101 101 76 128 148 170 181 205 201 208 231 231 236 100 119 161 111 114 101 109 109 113 110 104 98 112 118 118 139 146 121 95 79 105
316 237 331 345 25 91 112 116 117 196 266 248 253 245 247 257 240 195 113 150 114 139 181 150 203 208 181 211 212 214 233 126 136 146 168 140 111 110 107 106 106 108 111 114 111 108 103 97 88 107 94 40 71 68
245 302 329 328 315 72 32 46 251 226 255 250 252 280 229 242 52 121 101 112 135 162 159 235 288 243 254 246 216 282 144 133 123 121 118 119 110 107 114 112 108 113 115 113 114 111 106 95 94 104 128 104 58 42
288 297 308 325 307 128 211 174 229 268 251 239 247 249 252 262 37 106 114 88 91 80 348 250 256 245 256 331 237 135 152 155 134 114 113 112 112 113 113 111 111 112 123 131 118 126 129 135 142 119 125 113 93 31
292 282 277 256 235 177 226 198 200 271 276 262 291 332 270 218 145 126 112 124 126 178 223 240 255 327 222 301 53 148 103 126 116 101 82 106 117 118 128 131 135 139 113 85 74 99 78 56 31 63 104 120 79 35
289 127 94 156 172 221 281 237 228 231 274 294 290 319 270 111 119 151 140 147 168 212 259 241 279 296 306 258 182 195 156 120 117 128 138 126 152 132 136 126 121 98 93 103 101 87 85 89 89 80 75 65 44 62
213 169 158 130 260 213 249 242 236 305 276 271 318 277 283 230 144 155 132 171 217 221 239 299 307 287 324 75 133 190 144 123 119 123 104 110 110 117 113 142 114 110 120 138 128 113 89 77 96 78 80 65 56 56
244 279 263 185 265 261 263 256 229 229 258 284 309 265 241 57 105 160 130 165 173 30 295 342 341 279 290 297 150 146 143 134 140 154 147 121 90 100 94 95 116 117 122 116 118 101 83 86 87 86 72 60 62 52
233 214 234 225 207 262 244 220 215 240 259 274 235 250 73 11 166 113 82 44 322 306 338 4 347 289 352 69 83 110 107 106 113 104 113 112 107 98 108 105 103 107 120 127 108 99 92 88 94 82 72 65 58 63
184 230 211 242 243 235 235 221 216 187 243 231 261 152 180 142 155 80 88 3 339 4 4 342 165 264 11 88 73 72 60 114 130 119 80 121 113 98 80 73 74 89 109 99 92 93 76 71 70 67 51 69 71 61
218 215 182 215 234 206 232 252 216 235 226 311 286 119 164 172 85 128 82 344 326 338 6 357 329 356 18 17 117 67 15 78 101 87 21 55 139 133 123 112 99 39 32 94 99 92 82 71 72 76 74 52 51 73
250 261 219 225 235 268 281 275 135 226 211 284 47 222 210 149 143 117 321 337 292 305 305 299 289 297 78 34 69 78 76 70 77 91 87 68 63 86 115 120 109 109 92 86 84 89 90 81 76 88 76 55 53 67
247 277 225 251 223 230 271 21 44 18 2 323 301 38 54 17 121 341 296 319 303 302 293 277 190 96 13 2 98 97 94 99 98 96 81 63 59 76 85 86 94 98 87 82 87 87 86 86 90 87 73 72 69 55
241 259 163 236 142 61 43 47 67 44 333 309 348 59 88 55 14 329 314 314 305 304 340 191 265 112 83 70 60 58 109 127 116 105 104 113 106 58 79 99 95 89 86 81 63 77 80 89 96 88 79 73 71 68
241 183 219 149 110 132 138 356 121 124 254 306 118 105 97 68 290 298 314 338 357 359 346 350 89 90 91 93 87 61 31 73 120 133 137 132 118 106 90 87 85 80 76 83 89 79 65 75 72 66 65 54 48 46
181 152 95 73 95 84 99 111 151 190 269 57 12 88 136 173 254 285 2 333 326 354 28 50 66 59 80 71 78 89 63 24 70 83 94 101 100 97 98 94 90 86 81 80 83 82 83 75 72 71 65 60 51 45
36 108 128 134 171 183 180 222 193 193 206 141 123 115 151 184 171 225 266 355 196 107 63 80 89 91 90 80 76 70 77 78 44 53 86 97 100 105 104 102 97 92 87 85 85 86 79 77 73 70 68 63 52 40
53 91 102 118 149 193 207 189 203 189 189 197 191 171 179 159 201 238 288 210 222 172 130 89 94 100 94 92 93 87 76 76 70 74 76 75 79 84 100 101 102 104 100 95 88 88 85 90 86 83 76 69 54 37